Melville Hall, Dominica

5:51 PM AST on June 18, 2018 (GMT -0400)
Melville Hall

Weather History for TDPD - September, 2017

Change the Weather History Date:

Friday, September 1, 2017

  Actual Average Record
Temperature  
Mean Temperature 82 °F -  
Max Temperature 89 °F 85 °F 90 °F (2012)
Min Temperature 75 °F 75 °F 73 °F (2008)
Cooling Degree Days 17    
Growing Degree Days 32 (Base 50)    
Moisture  
Dew Point 75 °F    
Average Humidity 71    
Maximum Humidity 94    
Minimum Humidity 57    
Precipitation  
Precipitation 0.00 in 0.39 in - ()
Sea Level Pressure  
Sea Level Pressure 30.00 in    
Wind  
Wind Speed 6 mph ()    
Max Wind Speed 9 mph    
Max Gust Speed -    
Visibility 8.8 miles    
Events      
Averages and records for this station are not official NWS values.
T = Trace of Precipitation, MM = Missing Value Source: Averaged Metar Reports

Daily Weather History Graph

Daily Weather History Graph

Search for Another Location

Airport or City:

Astronomy

Sep. 01, 2017 Rise Set
Actual Time 5:52 AM AST 6:17 PM AST
Civil Twilight 5:30 AM AST 6:39 PM AST
Nautical Twilight 5:05 AM AST 7:04 PM AST
Astronomical Twilight 4:39 AM AST 7:30 PM AST
Moon 2:56 PM AST (9/1) 1:45 AM AST (9/1)
Length of Visible Light 13h 08m
Length of Day
12h 24m
Waxing Gibbous, 80% of the Moon is Illuminated
Sep 1
Waxing Gibbous
Sep 6
Full
Sep 13
Last Quarter
Sep 20
New
Sep 27
First Quarter

Hourly Weather History & Observations

Time (AST) Temp. Heat Index Dew Point Humidity Pressure Visibility Wind Dir Wind Speed Gust Speed Precip Events Conditions
6:00 AM 75.2 °F - 73.4 °F 94% 29.98 in 6.2 mi West 5.8 mph - N/A   Partly Cloudy
7:00 AM 78.8 °F - 75.2 °F 89% 30.01 in 6.2 mi West 6.9 mph - N/A   Scattered Clouds
8:00 AM 85 °F - 75 °F 66% 30.02 in 17 mi East 8.1 mph - -   Partly Cloudy
8:00 AM 86.0 °F 95.1 °F 75.2 °F 70% 30.01 in 6.2 mi East 8.1 mph - N/A   Mostly Cloudy
9:00 AM 86.0 °F 95.1 °F 75.2 °F 70% 30.04 in 6.2 mi ESE 8.1 mph - N/A   Scattered Clouds
10:00 AM 87.8 °F 95.6 °F 73.4 °F 62% 30.04 in 6.2 mi ESE 9.2 mph - N/A   Partly Cloudy
11:00 AM 88 °F - 75 °F 58% 30.04 in 17 mi East 8.1 mph - -   Partly Cloudy
11:00 AM 87.8 °F 97.6 °F 75.2 °F 66% 30.04 in 6.2 mi East 8.1 mph - N/A   Partly Cloudy
12:00 PM 87.8 °F 97.6 °F 75.2 °F 66% 30.01 in 6.2 mi East 8.1 mph - N/A   Partly Cloudy
1:00 PM 87.8 °F 95.6 °F 73.4 °F 62% 29.98 in 6.2 mi ESE 6.9 mph - N/A   Partly Cloudy
2:00 PM 88 °F - 75 °F 57% 29.99 in 17 mi East 8.1 mph - -   Partly Cloudy
2:00 PM 87.8 °F 97.6 °F 75.2 °F 66% 29.98 in 6.2 mi East 8.1 mph - N/A   Scattered Clouds
3:00 PM 87.8 °F 97.6 °F 75.2 °F 66% 29.98 in 6.2 mi ESE 6.9 mph - N/A   Scattered Clouds
4:00 PM 87.8 °F 95.6 °F 73.4 °F 62% 29.95 in 6.2 mi ESE 4.6 mph - N/A   Partly Cloudy
5:00 PM 86 °F - 75 °F 62% 29.98 in 17 mi East 6.9 mph - -   Mostly Cloudy
5:00 PM 86.0 °F 95.1 °F 75.2 °F 70% 29.98 in 6.2 mi East 6.9 mph - N/A   Mostly Cloudy
6:00 PM 84.2 °F 90.9 °F 73.4 °F 70% 29.98 in 6.2 mi ESE 5.8 mph - N/A   Mostly Cloudy
7:00 PM 82.4 °F 89.5 °F 75.2 °F 79% 30.01 in 6.2 mi South 2.3 mph - N/A   Scattered Clouds
8:00 PM 80 °F - 75 °F 82% 30.02 in 17 mi West 4.6 mph - -   Partly Cloudy
8:00 PM 78.8 °F - 75.2 °F 89% 30.01 in 6.2 mi West 4.6 mph - N/A   Scattered Clouds
9:00 PM 78.8 °F - 75.2 °F 89% 30.04 in 6.2 mi West 5.8 mph - N/A   Mostly Cloudy